Theta_e
330 330 330 331 330 328 330 329 331 331 330 330 329 329 329 328 328 328 329 328 328 327 327 328 328 328 328 328 324 327 327 328 329 327 327 326 326 325 324 323 323 322 322
330 329 331 331 329 329 330 330 331 331 330 330 329 329 327 326 326 328 327 328 328 328 327 327 328 328 329 327 330 331 328 327 328 328 326 326 326 324 323 323 323 323 322
328 329 331 330 329 330 331 331 331 331 330 329 329 327 327 326 327 327 327 326 326 327 327 329 328 330 331 328 328 328 329 328 328 327 326 325 324 324 324 324 324 323 323
327 329 330 330 330 329 331 331 331 330 330 330 328 328 327 327 326 325 325 326 327 327 328 329 329 330 330 328 328 328 328 328 328 327 326 325 325 324 325 324 323 323 322
327 329 329 329 330 330 330 331 331 330 330 330 328 327 327 327 326 325 325 325 326 326 327 327 327 327 328 329 328 328 328 327 327 327 326 325 324 325 325 326 325 324 321
327 328 327 329 330 330 330 331 331 330 328 330 328 327 326 326 324 324 324 325 325 326 327 326 326 327 327 327 328 327 327 327 326 326 325 326 326 326 326 325 321 321 322
326 327 327 329 329 329 329 330 331 330 330 328 330 328 326 324 324 323 324 326 327 326 327 326 327 327 326 327 327 327 326 326 326 326 325 325 325 326 326 325 321 322 323
325 325 326 328 329 329 329 327 327 329 329 328 328 327 326 326 326 325 324 325 325 325 326 327 326 326 327 327 326 325 326 326 326 326 326 326 326 326 327 326 321 320 319
325 325 326 327 329 328 327 325 326 329 330 329 327 326 325 325 326 326 326 325 325 326 326 326 326 326 326 325 325 324 324 325 325 327 327 327 327 324 324 319 319 322 320
325 325 325 327 327 327 326 324 327 329 329 329 328 327 327 326 325 325 325 326 325 326 325 326 326 326 325 326 324 325 325 322 323 325 322 322 321 317 318 323 323 324 321
325 324 324 327 326 327 325 324 328 328 328 328 328 327 327 327 326 326 326 327 328 328 327 326 325 325 326 323 324 326 324 322 321 321 320 320 319 318 320 322 323 324 319
324 324 324 327 324 325 325 324 327 328 329 328 327 326 327 327 327 327 326 327 327 327 327 327 326 325 326 323 323 323 324 322 320 320 318 317 317 316 316 319 320 317 314
324 324 324 326 325 326 325 324 326 327 328 326 324 325 325 325 327 327 327 327 327 328 327 326 325 326 325 322 321 322 322 322 320 319 316 314 313 311 311 311 311 312 310
325 325 324 325 326 326 325 324 323 325 325 324 323 323 322 323 325 325 326 326 327 326 325 325 325 325 322 321 320 318 318 319 319 318 316 314 310 310 310 308 307 306 303
325 324 323 323 325 326 326 324 323 323 323 324 324 323 323 322 322 323 323 324 325 325 326 325 322 319 320 319 319 319 318 317 317 317 315 313 311 311 310 309 307 307 306
325 324 323 322 324 325 325 324 323 323 320 319 321 323 324 324 322 322 322 320 319 321 323 323 320 319 319 319 319 318 317 316 317 316 316 314 312 311 310 308 308 307 304
325 324 323 322 322 323 323 324 325 322 322 321 319 319 321 322 323 323 322 322 322 321 321 321 321 320 319 318 318 318 318 317 317 316 315 314 312 312 309 309 308 305 302
325 323 323 321 321 322 322 323 323 323 324 324 322 321 320 319 319 321 321 318 314 315 318 320 319 319 320 319 317 317 317 317 316 315 314 314 313 312 310 309 307 305 300
324 322 322 322 321 321 322 322 322 323 323 322 323 322 323 323 323 322 321 319 318 316 315 315 316 317 316 316 317 316 315 316 315 314 313 313 312 312 311 310 308 303 299
323 321 322 322 322 321 322 322 322 322 323 323 323 322 321 321 320 319 320 318 322 321 319 317 315 314 314 314 313 314 314 313 313 313 312 312 311 311 311 309 306 300 298
322 320 320 322 322 321 321 322 322 323 323 323 323 322 321 320 322 322 321 320 321 322 321 319 317 315 314 312 312 311 311 312 312 312 311 311 310 310 309 308 303 298 296
323 321 319 321 322 322 322 322 322 323 323 323 323 322 321 320 321 321 321 320 320 320 320 320 318 317 316 314 312 311 311 310 310 310 310 310 310 308 307 305 299 297 296
323 322 320 321 322 322 322 323 323 323 323 323 323 323 319 318 320 321 321 321 320 319 319 319 319 318 318 317 316 314 312 311 311 310 309 309 307 306 304 301 298 297 295
324 323 322 322 322 322 322 322 323 323 323 323 323 323 322 319 320 320 321 321 320 319 319 318 317 317 317 317 317 317 316 315 312 311 310 309 308 305 303 301 298 296 296
324 324 323 323 323 322 323 323 323 323 323 323 323 323 323 322 320 320 321 321 320 319 318 318 317 316 315 316 316 316 316 315 314 313 311 310 308 303 302 300 297 296 296
324 324 324 324 324 323 323 323 323 324 323 323 323 323 323 323 322 321 321 320 320 319 318 318 318 317 316 316 315 315 314 313 312 311 310 308 305 302 299 298 296 296 298
Wind_Speed
8 6 4 3 3 4 2 2 2 5 8 10 9 9 9 10 9 8 8 7 7 8 9 9 9 11 12 11 11 7 14 19 13 18 27 36 36 37 35 32 28 25 20
8 6 5 3 4 4 4 3 3 6 9 10 11 9 10 10 9 8 8 7 8 9 9 11 13 13 13 14 9 10 15 19 23 19 30 32 34 34 34 29 24 19 17
7 7 5 4 4 4 5 4 6 8 8 10 12 12 11 10 9 9 10 10 10 10 10 11 13 14 13 12 13 14 17 23 25 27 26 30 32 32 29 25 21 18 14
8 8 6 5 4 4 5 5 8 9 10 10 10 12 11 11 11 12 12 11 10 10 8 10 12 13 13 15 15 16 23 24 26 26 28 28 25 27 26 24 19 15 12
10 9 7 6 5 6 6 5 8 10 10 11 12 13 11 11 11 12 11 11 11 12 11 12 11 12 15 15 19 20 24 21 24 25 24 23 20 23 21 17 19 14 11
11 9 8 8 7 7 7 7 8 10 11 11 11 12 11 11 17 17 14 12 12 13 14 13 13 14 13 16 18 21 24 26 24 22 23 22 19 20 21 18 19 17 10
12 11 10 9 8 8 6 7 7 10 10 10 11 12 14 17 15 16 15 12 12 13 16 19 21 21 20 23 19 18 23 25 27 29 26 24 22 27 18 16 14 12 13
14 13 12 10 9 9 9 8 6 8 9 9 10 11 18 18 14 14 16 12 13 15 17 19 24 26 24 27 21 22 23 21 19 25 29 28 25 27 18 15 15 17 17
16 15 15 12 12 10 9 8 7 8 10 9 8 8 15 20 14 12 14 14 15 19 17 22 25 23 22 18 14 18 19 18 16 20 18 19 19 18 19 19 16 16 11
19 17 16 14 14 12 10 9 8 10 13 12 11 11 15 15 15 18 16 17 19 21 19 23 23 21 17 9 11 16 17 15 20 21 18 18 20 19 17 12 16 13 12
19 18 17 15 14 13 11 10 12 12 12 13 13 11 13 14 15 15 20 17 18 18 20 20 18 14 10 10 15 13 15 20 22 20 18 17 16 16 13 12 12 10 10
20 20 18 17 15 14 13 13 12 13 13 12 13 12 10 11 13 15 17 17 18 21 21 18 17 13 9 10 14 12 15 19 17 15 15 13 12 11 12 13 13 12 11
21 22 20 18 16 15 15 15 14 13 13 13 12 13 12 10 12 14 15 15 15 16 16 16 15 11 7 10 13 13 14 17 16 14 13 12 11 14 17 16 16 14 14
23 22 21 21 18 16 15 15 15 15 14 13 13 13 13 13 12 12 14 16 16 15 16 17 13 11 11 12 14 13 10 10 11 12 14 14 14 16 14 14 14 13 11
24 23 22 21 22 19 18 17 16 16 17 17 15 15 15 14 14 16 16 15 14 15 17 14 11 10 10 10 10 12 11 12 13 13 14 15 15 15 13 12 12 10 6
25 24 25 24 23 21 19 15 19 17 19 18 17 16 15 13 17 17 15 16 16 17 14 13 13 13 13 13 13 13 13 14 14 14 15 16 16 16 15 14 11 9 11
29 26 26 25 24 23 21 20 18 18 20 20 19 19 18 17 18 18 17 16 16 17 14 15 15 16 16 15 15 16 17 16 15 16 17 17 17 17 18 14 11 11 11
31 33 29 28 25 24 23 22 21 19 19 18 24 23 21 20 18 20 21 20 18 20 16 16 17 18 18 18 18 18 17 17 18 17 17 17 18 19 21 19 19 17 15
31 29 29 29 27 26 24 23 22 20 20 19 17 23 26 24 23 21 22 21 20 20 20 20 18 17 17 18 18 18 18 18 18 18 18 19 19 18 17 16 15 16 17
32 33 33 29 27 27 25 24 23 22 21 20 20 21 20 26 21 20 24 21 21 21 20 21 21 20 19 18 18 19 19 19 19 18 18 17 18 19 19 18 16 17 18
31 29 35 30 29 28 27 26 24 23 23 23 23 22 27 27 27 26 24 24 24 25 24 23 22 22 21 21 20 21 22 22 22 22 21 22 22 22 21 20 20 23 20
30 29 33 32 29 29 29 27 25 24 23 23 23 22 29 30 24 25 26 28 29 29 28 26 25 25 24 24 23 22 22 23 24 24 24 22 21 20 22 23 23 32 33
30 28 29 29 29 28 28 28 27 27 26 25 24 22 23 27 28 28 27 26 26 27 27 27 27 26 25 23 23 25 26 27 27 29 26 27 30 29 26 25 27 28 32
30 31 31 30 28 28 28 28 28 28 27 26 25 25 24 25 27 28 27 25 24 25 25 27 28 29 27 26 25 25 25 25 25 28 30 26 25 31 30 29 33 35 35
27 28 29 28 29 30 27 28 27 27 26 26 25 24 24 23 22 24 24 25 24 23 24 24 25 27 31 31 29 26 27 30 28 27 25 24 26 34 33 36 40 41 37
16 17 20 23 25 25 27 26 27 25 26 25 25 25 23 24 23 22 22 23 23 23 23 22 24 26 24 24 28 27 29 31 29 30 25 27 31 33 36 38 42 39 36
Wind_Direction
171 167 175 160 118 79 102 125 110 127 147 165 162 155 146 151 149 148 141 144 144 141 140 142 144 150 155 153 153 127 123 119 110 122 118 124 129 134 137 140 148 150 153
170 161 173 144 111 84 110 107 100 121 144 160 161 152 153 154 154 150 143 149 147 138 139 137 136 136 136 154 149 143 149 143 131 128 127 129 132 137 141 143 147 149 155
168 169 165 140 119 97 111 102 106 119 127 149 158 158 148 151 145 140 138 136 137 142 143 141 145 144 141 146 150 138 139 142 138 130 125 127 132 141 142 145 149 152 148
165 170 164 158 134 114 118 97 119 124 126 133 143 147 140 138 135 135 135 138 136 140 144 147 149 150 142 149 149 150 144 137 133 138 132 133 137 148 146 148 142 138 135
165 171 164 158 133 115 117 92 112 121 125 130 132 139 135 135 137 138 136 138 135 133 134 131 140 152 153 152 153 149 141 134 133 134 135 140 140 145 148 148 138 140 120
168 172 159 155 142 112 114 110 115 115 126 130 135 137 134 130 137 135 135 134 135 132 132 127 134 143 152 160 157 155 154 136 135 139 143 145 145 147 154 151 141 145 130
170 169 162 162 150 136 118 116 120 132 123 136 141 144 140 137 138 135 134 135 136 135 136 134 135 130 129 142 132 146 151 151 146 148 148 154 160 169 163 151 156 155 142
173 172 170 166 158 151 135 115 114 131 139 139 151 162 160 148 139 133 138 139 137 138 141 139 141 140 131 130 121 110 124 137 151 157 161 170 173 176 174 167 150 130 127
179 178 178 172 164 158 147 127 128 131 132 127 125 118 152 149 156 158 145 145 142 147 150 144 139 137 134 131 123 125 128 128 130 153 160 166 168 173 171 154 144 144 140
185 184 182 179 172 166 156 136 131 127 127 124 118 113 120 135 147 161 149 147 134 143 148 145 141 138 134 138 140 133 126 128 134 141 138 145 154 160 164 163 166 166 153
185 184 182 183 177 169 156 145 138 135 132 127 124 122 126 131 142 150 145 140 134 131 125 146 153 146 129 121 137 127 132 136 135 139 141 142 153 162 171 175 174 181 167
180 182 183 183 178 171 163 150 144 140 139 137 133 129 132 138 144 153 161 154 144 144 148 155 161 155 135 127 137 136 148 155 142 135 130 130 138 150 160 165 174 179 175
180 180 182 182 181 177 168 159 154 153 152 150 148 140 137 141 145 147 163 169 159 153 154 161 164 159 148 142 139 136 141 146 151 148 146 144 148 152 152 150 148 145 139
180 182 179 179 183 182 180 175 171 172 169 165 159 150 145 143 145 152 154 162 171 172 165 165 171 170 159 164 162 165 170 168 172 168 161 157 153 153 153 153 149 148 134
180 180 182 184 184 186 189 188 189 191 187 180 177 171 165 169 172 165 162 162 165 172 174 175 174 175 174 174 174 182 185 190 183 174 167 166 168 170 171 169 170 169 147
179 180 184 186 187 190 191 196 198 201 203 201 197 184 184 184 180 176 174 174 175 177 175 181 189 193 194 192 190 188 191 193 193 189 185 183 181 181 180 178 175 166 152
180 182 183 186 187 189 194 197 201 216 212 215 215 212 207 201 192 192 191 191 196 193 198 200 204 205 206 205 202 200 198 199 196 194 193 189 187 185 182 183 180 172 166
184 184 183 189 192 193 194 197 201 201 205 212 219 217 216 216 213 211 210 209 199 208 215 216 215 214 212 212 210 208 204 199 200 200 199 198 197 194 186 188 185 183 173
183 188 189 189 193 196 197 200 203 204 206 208 204 218 218 218 221 223 222 213 215 217 221 225 224 221 218 218 218 215 211 208 204 202 205 204 202 199 202 198 194 181 164
187 189 187 189 190 193 199 204 206 209 209 209 208 211 200 212 213 217 219 220 226 228 228 229 229 229 227 224 222 219 217 213 209 209 211 210 208 205 201 196 190 180 169
189 191 190 190 193 196 199 204 208 211 213 214 217 214 206 202 210 215 218 222 226 230 231 233 233 232 229 226 223 219 218 217 216 215 211 209 204 201 200 190 181 167 158
189 191 192 198 196 198 201 203 207 211 215 217 221 220 219 215 219 223 224 224 224 225 229 231 231 231 231 229 226 224 223 222 219 215 213 209 204 202 196 187 173 162 162
189 193 197 201 202 200 198 202 206 212 215 218 219 216 212 215 218 221 224 226 226 226 226 225 229 233 234 232 230 229 227 227 223 219 208 206 203 190 185 181 170 162 163
190 193 196 199 202 206 206 206 210 211 214 219 220 220 219 219 219 222 222 224 227 228 227 228 227 227 230 232 234 233 233 233 230 230 227 211 196 185 178 180 172 163 164
198 197 196 199 198 202 209 209 210 215 218 221 223 225 227 229 228 226 224 225 226 227 229 228 231 235 234 232 233 234 237 240 229 227 210 204 196 187 175 171 166 165 169
210 211 216 207 208 206 208 211 210 212 217 220 223 227 228 229 230 230 228 224 224 226 229 231 233 235 238 239 237 235 239 244 236 241 208 198 193 179 173 165 163 162 172